TimeCDT,TemperatureF,Dew PointF,Humidity,Sea Level PressureIn,VisibilityMPH,Wind Direction,Wind SpeedMPH,Gust SpeedMPH,PrecipitationIn,Events,Conditions,WindDirDegrees,DateUTC
12:15 AM,54.9,53.6,96,29.75,10.0,South,10.4,-,N/A,,Overcast,180,2013-03-11 05:15:00
12:35 AM,54.7,52.9,94,29.74,10.0,South,11.5,-,N/A,,Overcast,190,2013-03-11 05:35:00
12:55 AM,54.7,52.9,94,29.73,10.0,South,11.5,-,N/A,,Overcast,190,2013-03-11 05:55:00
1:15 AM,54.3,52.2,92,29.73,10.0,SSW,12.7,-,N/A,,Mostly Cloudy,200,2013-03-11 06:15:00
1:55 AM,54.0,51.6,92,29.73,10.0,South,12.7,20.7,N/A,,Overcast,190,2013-03-11 06:55:00
2:15 AM,53.8,50.4,88,29.73,10.0,SSW,13.8,-,N/A,,Overcast,210,2013-03-11 07:15:00
2:55 AM,53.6,49.8,87,29.72,10.0,SSW,12.7,-,N/A,,Overcast,210,2013-03-11 07:55:00
3:15 AM,52.9,49.6,89,29.71,10.0,SSW,10.4,-,N/A,,Overcast,200,2013-03-11 08:15:00
3:55 AM,53.1,49.6,88,29.69,10.0,SSW,13.8,-,N/A,,Overcast,200,2013-03-11 08:55:00
4:15 AM,52.7,49.3,88,29.68,10.0,South,10.4,-,N/A,,Overcast,190,2013-03-11 09:15:00
4:35 AM,52.7,49.3,88,29.66,10.0,South,10.4,-,N/A,,Overcast,170,2013-03-11 09:35:00
4:55 AM,52.3,49.3,89,29.71,10.0,South,12.7,-,N/A,,Overcast,180,2013-03-11 09:55:00
5:15 AM,49.3,45.9,88,29.73,10.0,SW,16.1,-,N/A,,Overcast,230,2013-03-11 10:15:00
5:35 AM,48.6,45.5,89,29.72,7.0,SW,13.8,-,N/A,,Light Drizzle,230,2013-03-11 10:35:00
5:55 AM,48.2,44.6,87,29.71,10.0,SW,10.4,-,N/A,,Overcast,230,2013-03-11 10:55:00
6:15 AM,48.2,44.2,86,29.71,10.0,SW,10.4,-,N/A,,Overcast,230,2013-03-11 11:15:00
6:35 AM,47.7,44.6,89,29.71,10.0,SW,6.9,-,N/A,,Overcast,230,2013-03-11 11:35:00
6:55 AM,47.7,44.4,89,29.71,10.0,WSW,4.6,-,N/A,,Overcast,240,2013-03-11 11:55:00
7:15 AM,47.7,44.4,89,29.72,10.0,SW,6.9,-,N/A,,Overcast,220,2013-03-11 12:15:00
7:35 AM,47.3,44.2,89,29.72,10.0,South,6.9,-,N/A,,Overcast,190,2013-03-11 12:35:00
7:55 AM,47.3,44.2,89,29.70,10.0,South,4.6,-,N/A,,Overcast,190,2013-03-11 12:55:00
8:15 AM,47.5,44.8,90,29.71,7.0,SSW,5.8,-,N/A,,Overcast,210,2013-03-11 13:15:00
8:55 AM,44.6,42.1,91,29.71,4.0,WSW,15.0,-,N/A,,Overcast,250,2013-03-11 13:55:00
9:15 AM,43.9,42.1,93,29.71,2.0,WSW,15.0,-,N/A,,Overcast,240,2013-03-11 14:15:00
9:35 AM,43.9,42.3,94,29.73,2.0,WSW,17.3,-,N/A,,Light Drizzle,240,2013-03-11 14:35:00
9:55 AM,43.0,41.4,94,29.74,2.5,SW,15.0,-,N/A,Rain,Rain,230,2013-03-11 14:55:00
10:15 AM,42.4,40.1,91,29.74,5.0,WSW,17.3,-,N/A,Rain,Light Rain,240,2013-03-11 15:15:00
10:35 AM,41.9,39.2,90,29.75,7.0,WSW,17.3,21.9,N/A,,Overcast,250,2013-03-11 15:35:00
10:55 AM,43.0,40.1,90,29.73,10.0,SW,15.0,-,N/A,,Overcast,230,2013-03-11 15:55:00
11:15 AM,42.4,39.6,90,29.75,10.0,WSW,16.1,-,N/A,,Overcast,240,2013-03-11 16:15:00
11:35 AM,41.4,37.6,86,29.76,10.0,SW,24.2,28.8,N/A,,Overcast,230,2013-03-11 16:35:00
11:55 AM,40.5,37.4,89,29.76,5.0,WSW,16.1,26.5,N/A,,Overcast,240,2013-03-11 16:55:00
12:15 PM,40.6,36.1,84,29.76,10.0,SW,18.4,23.0,N/A,,Overcast,230,2013-03-11 17:15:00
12:35 PM,40.1,35.2,83,29.77,10.0,WSW,20.7,-,N/A,,Overcast,240,2013-03-11 17:35:00
12:55 PM,41.2,35.8,81,29.76,10.0,SW,18.4,23.0,N/A,,Overcast,230,2013-03-11 17:55:00
1:15 PM,41.5,36.0,81,29.76,10.0,SW,19.6,23.0,N/A,,Overcast,230,2013-03-11 18:15:00
1:35 PM,40.3,34.2,79,29.76,10.0,SW,17.3,-,N/A,,Overcast,230,2013-03-11 18:35:00
1:55 PM,39.2,34.0,82,29.77,10.0,SW,17.3,25.3,N/A,,Overcast,230,2013-03-11 18:55:00
2:15 PM,39.6,33.6,79,29.76,10.0,WSW,20.7,26.5,N/A,,Overcast,250,2013-03-11 19:15:00
2:35 PM,39.2,33.3,79,29.77,10.0,SW,19.6,-,N/A,,Overcast,230,2013-03-11 19:35:00
2:55 PM,38.3,33.1,81,29.78,10.0,SW,20.7,-,N/A,,Overcast,230,2013-03-11 19:55:00
3:15 PM,38.3,33.6,83,29.79,10.0,WSW,21.9,27.6,N/A,,Overcast,240,2013-03-11 20:15:00
3:35 PM,38.3,32.2,79,29.79,10.0,WSW,21.9,29.9,N/A,,Overcast,240,2013-03-11 20:35:00
3:55 PM,38.1,32.2,79,29.80,10.0,WSW,20.7,27.6,N/A,,Overcast,250,2013-03-11 20:55:00
4:15 PM,37.9,32.0,79,29.81,10.0,WSW,18.4,25.3,N/A,,Overcast,240,2013-03-11 21:15:00
4:35 PM,38.1,32.4,80,29.82,10.0,WSW,15.0,-,N/A,,Overcast,240,2013-03-11 21:35:00
4:55 PM,37.9,32.0,79,29.82,10.0,WSW,13.8,20.7,N/A,,Overcast,240,2013-03-11 21:55:00
5:15 PM,37.8,32.0,80,29.83,10.0,WSW,18.4,-,N/A,,Overcast,250,2013-03-11 22:15:00
5:35 PM,37.8,32.0,80,29.84,10.0,WSW,15.0,20.7,N/A,,Overcast,240,2013-03-11 22:35:00
5:55 PM,37.4,32.0,81,29.85,10.0,WSW,17.3,24.2,N/A,,Overcast,250,2013-03-11 22:55:00
6:15 PM,37.4,31.3,79,29.86,10.0,WSW,17.3,23.0,N/A,,Overcast,250,2013-03-11 23:15:00
6:35 PM,37.4,31.8,80,29.87,10.0,WSW,13.8,-,N/A,,Overcast,250,2013-03-11 23:35:00
6:55 PM,37.4,32.0,81,29.88,10.0,WSW,12.7,-,N/A,,Overcast,240,2013-03-11 23:55:00
7:15 PM,37.4,31.3,79,29.89,10.0,WSW,17.3,-,N/A,,Overcast,240,2013-03-12 00:15:00
7:35 PM,37.0,31.1,79,29.90,10.0,WSW,17.3,-,N/A,,Overcast,240,2013-03-12 00:35:00
7:55 PM,37.0,31.1,79,29.92,10.0,WSW,16.1,-,N/A,,Overcast,240,2013-03-12 00:55:00
8:15 PM,36.9,31.1,80,29.92,10.0,WSW,12.7,-,N/A,,Overcast,250,2013-03-12 01:15:00
8:35 PM,36.9,31.1,80,29.93,10.0,WSW,9.2,-,N/A,,Overcast,250,2013-03-12 01:35:00
8:55 PM,36.9,30.9,79,29.93,10.0,WSW,10.4,16.1,N/A,,Overcast,250,2013-03-12 01:55:00
9:15 PM,37.0,30.7,78,29.94,10.0,WSW,12.7,-,N/A,,Overcast,250,2013-03-12 02:15:00
9:55 PM,36.9,31.1,80,29.96,10.0,WSW,13.8,-,N/A,,Overcast,240,2013-03-12 02:55:00
10:15 PM,36.7,29.3,75,29.96,10.0,WSW,17.3,20.7,N/A,,Overcast,250,2013-03-12 03:15:00
10:35 PM,36.7,29.8,76,29.97,10.0,WSW,12.7,-,N/A,,Overcast,250,2013-03-12 03:35:00
10:55 PM,36.7,29.3,75,29.97,10.0,WSW,11.5,-,N/A,,Overcast,240,2013-03-12 03:55:00
11:15 PM,36.7,29.7,76,29.97,10.0,WSW,11.5,16.1,N/A,,Overcast,240,2013-03-12 04:15:00
11:35 PM,36.7,29.5,75,29.98,10.0,WSW,13.8,-,N/A,,Overcast,240,2013-03-12 04:35:00
11:55 PM,36.9,29.5,75,29.98,10.0,WSW,13.8,-,N/A,,Overcast,240,2013-03-12 04:55:00